RH
41 40 36 31 26 24 23 23 25 26 27 28 30 31 31 30 31 34 35 37 40 42 44 45 45 44 40 38 36 41 43 45 46 43 41 44 45 48 45 40 38 37 38
42 42 39 34 31 28 26 26 28 30 31 33 34 34 34 34 36 39 42 43 44 44 44 43 44 44 38 34 36 45 60 59 55 56 57 51 46 47 47 44 39 38 39
42 43 41 38 37 33 32 33 35 35 36 37 37 37 38 40 42 44 48 49 46 45 44 44 45 46 51 42 37 43 46 55 66 67 67 61 56 53 52 50 47 44 41
41 43 44 42 43 43 42 41 41 40 40 40 40 40 41 44 46 46 47 49 52 43 43 43 47 45 42 39 34 35 36 40 56 68 69 65 61 58 55 52 53 55 50
43 43 46 46 46 48 48 49 50 48 45 43 43 43 43 42 42 45 45 45 43 41 41 42 41 41 40 37 37 37 37 38 42 48 55 61 63 64 63 65 65 63 61
50 48 49 51 52 53 54 55 52 50 47 47 43 43 43 41 42 37 38 38 39 40 43 42 43 41 39 37 36 38 40 42 41 42 43 44 56 70 72 71 71 69 70
54 54 52 53 52 51 52 52 51 51 47 45 46 39 36 38 39 36 34 32 35 39 42 52 45 44 42 40 40 42 41 41 39 35 35 36 42 50 67 77 74 74 73
66 62 55 55 60 57 53 52 54 47 45 47 45 46 39 37 37 37 35 35 38 44 51 52 49 46 44 44 45 45 42 38 34 32 32 33 34 37 41 54 69 77 80
81 74 67 66 64 59 52 49 48 48 46 44 44 46 46 45 42 41 44 43 45 47 53 53 48 49 47 47 46 41 40 36 32 30 31 31 32 33 37 41 43 45 63
83 78 72 69 61 56 52 49 47 46 46 44 42 40 40 43 48 43 41 43 48 48 48 49 46 51 51 49 46 43 40 36 32 32 33 35 37 39 39 38 43 45 45
71 67 65 62 60 55 53 52 50 47 44 42 40 38 37 37 39 42 41 42 45 46 48 47 47 51 49 59 48 45 42 38 35 34 37 42 43 37 36 35 35 35 36
69 63 59 57 54 53 52 50 47 45 42 40 39 40 39 38 39 42 45 48 49 50 50 51 50 51 59 56 50 46 39 38 38 40 45 41 40 36 34 35 35 33 33
66 66 60 57 55 52 50 48 47 48 46 43 42 42 41 42 43 45 47 48 49 53 54 53 52 54 58 51 49 46 41 39 41 44 43 40 35 36 36 37 34 33 33
62 61 64 65 61 58 56 52 50 48 47 47 46 44 43 43 45 48 48 49 52 48 54 50 53 56 54 53 48 45 45 43 44 40 38 35 37 37 35 34 34 34 35
68 69 69 67 68 66 60 59 57 55 52 48 48 48 46 43 44 44 46 45 47 53 51 55 55 56 55 53 47 47 47 45 41 38 38 37 37 36 34 34 35 35 32
73 73 76 78 77 74 67 58 54 52 49 48 48 47 46 45 46 48 46 46 46 48 50 51 57 57 52 49 49 51 46 40 39 35 38 38 36 33 27 26 28 32 31
81 85 84 82 76 71 62 59 54 53 53 51 50 49 50 49 50 50 48 48 50 49 52 55 51 54 50 50 51 48 35 28 33 36 38 30 27 25 23 24 26 31 34
90 85 77 72 68 63 60 60 59 56 54 54 52 52 51 50 53 53 50 48 48 48 52 52 52 51 52 52 50 42 34 26 27 25 25 24 23 24 25 28 30 33 39
75 72 68 64 61 61 61 60 57 58 58 58 56 56 54 51 53 55 52 51 52 51 52 53 54 55 48 44 37 32 31 30 28 27 25 25 26 27 28 29 31 33 38
62 60 59 57 56 55 55 56 56 56 58 61 63 61 59 58 58 57 58 56 54 56 59 59 61 45 36 32 31 30 28 27 25 24 23 22 23 23 24 26 28 31 33
53 52 53 54 54 53 53 54 56 56 57 61 67 69 68 66 67 64 63 60 61 64 63 52 41 36 30 30 27 26 27 28 26 26 25 24 25 24 23 22 22 23 28
55 55 55 56 58 58 57 58 59 62 63 65 67 70 72 74 68 73 74 72 66 52 43 39 41 38 34 30 31 31 32 31 29 28 27 26 25 24 24 24 23 22 23
56 55 56 58 58 60 61 64 66 69 69 69 71 72 69 60 49 45 42 42 42 42 41 42 37 37 37 38 37 35 34 33 31 30 28 27 26 26 25 26 25 25 26
61 62 62 62 63 64 66 69 73 73 75 75 76 68 54 51 49 47 47 52 50 42 44 40 46 44 46 42 40 39 37 36 34 32 30 29 29 29 29 30 30 30 31
67 68 69 69 68 68 68 70 74 80 78 71 57 51 50 51 49 57 54 51 50 48 49 50 48 49 47 45 44 42 40 38 36 36 36 34 34 35 35 35 35 35 36
74 71 71 71 72 72 73 77 85 74 64 56 54 52 51 57 60 56 53 50 52 55 53 52 51 50 52 53 51 47 44 42 40 40 40 41 40 40 40 40 40 40 40